User: anonymous   Login
Location: Newark
(44.3248°N, 23.7839°E)
Time: 23:11:56
(UTC+00:00)
Language:

CAS-6 - Orbit

View from above orbital plane
View from above orbital plane
View from above satellite
View from above satellite

Ground track
Ground track

The orbit data is extracted from the following two-line orbital elements,

1 44881U 19093C   24109.55614358  .00002935  00000-0  36266-3 0  9995
2 44881  97.8295 187.4940 0015186 153.2128 206.9873 14.83488380234206
Epoch (UTC): 18 April 2024 13:20:50
Eccentricity: 0.0015186
inclination: 97.8295°
perigee height: 608 km
apogee height: 629 km
right ascension of ascending node: 187.4940°
argument of perigee: 153.2128°
revolutions per day: 14.83488380
mean anomaly at epoch: 206.9873°
orbit number at epoch: 23420

The dashed part of the orbit path shows where the satellite is in the earth's shadow,  

DLR